Weather in Noto

Italy     36°53′41″N   15°03′59″E
temp.,
°C
wind,
m/s
gust,
m/s
humid.,
%
clouds,
%
prec.,
mm/h
press.,
hPa
HPBL,
m
21 january, fri
fri2101:00+6w5118951 0.0 1022265
04:00+6w51189100 0.0 1021338
07:00+6wnw5137890 0.0 1021408
10:00+10wnw7106335 0.0 10211072
13:00+12wnw895681 0.0 10191246
16:00+10w710757 0.0 1019905
19:00+7w410882 0.0 1020243
22:00+6wnw513754 0.0 1022335
22 january, sat
sat2201:00+6wnw51172100 0.0 1022286
04:00+4wnw46800 0.0 102288
07:00+4nw457714 0.0 102376
10:00+9ene227017 0.0 1024630
13:00+8ese2178100 0.2 1024347
16:00+8se218725 0.3 1024267
19:00+5nw22924 0.3 102511
22:00+5nnw22890 0.0 102711
23 january, sun
sun2301:00+4nnw22890 0.0 102712
04:00+4nw22850 0.0 102711
07:00+3wnw22800 0.0 102814
10:00+9ese01540 0.0 1028412
13:00+12ssw11483 0.0 10261325
16:00+11ssw12654 0.0 1025531
19:00+6wnw33820 0.1 102630
22:00+5wnw33730 0.0 102629
24 january, mon
mon2401:00+5wnw33850 0.0 102627
04:00+4nw33800 0.0 102519
07:00+4nnw22770 0.0 102511
10:00+9ene22621 0.0 1026636
13:00+11e325953 0.0 10251286
16:00+9ese227036 0.1 1025278
19:00+7nw1178100 0.2 102724
22:00+4nnw236963 0.0 102952
25 january, tue
tue2501:00+4nnw226373 0.0 103038
04:00+2n22651 0.0 103019
07:00+1nnw22761 0.0 103115
10:00+6ene33563 0.0 1032767
13:00+8ssw134756 0.0 10311484
16:00+7sw3460100 0.0 1030784
19:00+3w37745 0.0 1030153
22:00+4wnw46891 0.0 1030100